Regional Weather Roundup
Issued by NWS Little Rock, AR

Home | Current Version | Previous Version | Text Only | Print | Product List | Glossary On
Versions: 1 2 3 4 5 6 7 8 9 10 11 12 13 14 15 16 17 18 19 20 21 22 23 24 25 26 27 28 29 30 31 32 33 34 35 36 37 38 39 40 41 42 43 44 45 46 47 48 49 50
000
ASUS44 KLZK 222005
RWRLZK

WEATHER ROUNDUP FOR ARKANSAS
NATIONAL WEATHER SERVICE LITTLE ROCK AR
200 PM CST SUN JAN 22 2017

NOTE: "FAIR" INDICATES FEW OR NO CLOUDS BELOW 12,000 FEET WITH NO
SIGNIFICANT WEATHER AND/OR OBSTRUCTIONS TO VISIBILITY.

ARZ001-003-010-029-222100-
NORTHWEST ARKANSAS

CITY           SKY/WX    TMP DP  RH WIND       PRES   REMARKS
FAYETTEVILLE   CLOUDY    49  47  93 N15G25    29.52R
FORT SMITH     CLOUDY    56  48  74 N24G35    29.47R
HARRISON       CLOUDY    47  47 100 NW13G25   29.47R
BENTONVILLE    CLOUDY   N/A N/A N/A N18G26    29.55R
ROGERS         CLOUDY    47  44  90 N18G29    29.54R
SILOAM SPGS    CLOUDY    46  43  87 N22G30    29.56R
HIGHFILL       CLOUDY    48  46  93 N22G30    29.55R
SPRINGDALE     CLOUDY    48  46  93 N16G32    29.54R
$$

ARZ004-005-016-222100-
NORTH CENTRAL ARKANSAS

CITY           SKY/WX    TMP DP  RH WIND       PRES   REMARKS
BATESVILLE     CLOUDY    55  54  94 CALM      29.36S
FLIPPIN        CLOUDY    52  46  82 N10G17    29.41R
MTN HOME       LGT RAIN  51  49  92 N10G18    29.42R
$$

ARZ040-041-222100-
WEST CENTRAL ARKANSAS

CITY           SKY/WX    TMP DP  RH WIND       PRES   REMARKS
MENA           CLOUDY    54  52  94 NW13G22   29.42R
MOUNT IDA      CLOUDY    57  50  77 NW3       29.37R
$$

ARZ009-017-025-026-028-222100-
NORTHEAST ARKANSAS

CITY           SKY/WX    TMP DP  RH WIND       PRES   REMARKS
CORNING        CLOUDY    59  55  88 N9        29.37S
JONESBORO      LGT RAIN  56  54  93 W3        29.32F FOG
NEWPORT        LGT RAIN  56  55  97 N9        29.34S
WALNUT RIDGE   CLOUDY    57  52  82 N14       29.35S
BLYTHEVILLE    LGT RAIN  56  55  97 CALM      29.32F FOG
$$

ARZ022-023-033-042-044-222100-
CENTRAL ARKANSAS

CITY           SKY/WX    TMP DP  RH WIND       PRES   REMARKS
LITTLE ROCK    LGT RAIN  53  51  93 NW13      29.35S
N LITTLE ROCK    N/A     52  50  94 N6        29.36R
JACKSONVILLE   CLOUDY    56  55  99 NW13      29.34R
SEARCY         LGT RAIN  56  55  97 N5        29.35F
HOT SPRINGS    CLOUDY    57  48  72 NW8       29.38R
RUSSELLVILLE   CLOUDY    55  52  89 NW7       29.38R
CLINTON        CLOUDY    57  54  88 NW6       29.38R
$$

ARZ036-222100-
EAST ARKANSAS

CITY           SKY/WX    TMP DP  RH WIND       PRES   REMARKS
WEST MEMPHIS   LGT RAIN  55  54  96 W7        29.30F
$$

ARZ050-053-066-070-073-222100-
SOUTHWEST ARKANSAS

CITY           SKY/WX    TMP DP  RH WIND       PRES   REMARKS
ARKADELPHIA    LGT RAIN  56  53  90 NW7       29.39S
CAMDEN         LGT RAIN  55  50  82 W3        29.39R
TEXARKANA      LGT RAIN  54  51  90 W9        29.43R
EL DORADO        N/A    N/A N/A N/A MISG      29.40F
DE QUEEN       CLOUDY    54  52  93 NW15      29.43R
$$

ARZ056-057-069-222100-
SOUTHEAST ARKANSAS

CITY           SKY/WX    TMP DP  RH WIND       PRES   REMARKS
PINE BLUFF     LGT RAIN  54  53  97 W12       29.34S
STUTTGART      CLOUDY    57  48  72 W9        29.33F
MONTICELLO     CLOUDY    55  50  83 W9        29.34S

$$





USA.gov is the U.S. government's official web portal to all federal, state and local government web resources and services.